Lapse_Rate
8.9 9.3 9.4 9.0 8.3 8.7 9.1 9.5 9.3 9.5 8.3 7.9 7.4 7.3 7.3 7.3 7.3 7.1 7.2 5.2 3.6 4.6 5.5 6.3 6.7 6.9 6.8 7.1 7.1 7.1 7.0 7.1 7.0 7.1 7.1 7.2 7.2 7.2 7.2 7.2 7.2 7.3 7.4
7.4 7.9 8.8 8.6 8.8 8.2 8.7 9.1 9.7 9.9 9.6 8.4 8.7 8.0 7.4 7.3 7.0 7.1 7.2 7.1 4.2 4.1 5.0 5.8 6.4 6.9 7.3 7.4 7.4 7.5 7.5 7.5 7.3 7.3 7.3 7.2 7.2 7.2 7.2 7.3 7.3 7.5 7.7
6.6 7.2 7.9 8.6 8.0 8.7 8.1 9.0 9.2 8.8 9.3 9.4 8.1 9.4 8.4 8.1 7.8 7.2 7.0 7.2 7.1 3.7 3.9 5.3 6.0 6.4 6.9 7.4 7.5 7.7 8.0 8.3 7.8 7.6 7.9 8.2 8.2 7.4 7.7 8.5 8.7 8.8 9.3
6.2 6.9 7.4 7.8 8.0 8.9 9.3 9.8 9.7 9.6 9.5 9.5 9.4 9.6 9.3 8.6 8.1 8.1 7.9 7.1 6.8 6.7 6.0 4.2 5.1 5.7 6.3 6.7 7.3 7.6 8.0 8.0 7.9 8.0 8.5 9.0 9.0 9.3 9.2 9.1 9.0 9.2 9.2
5.8 6.5 7.1 7.4 8.2 9.6 9.6 9.5 9.7 9.7 9.4 9.4 9.5 9.7 9.7 9.4 8.3 7.7 8.0 7.5 6.9 6.5 6.9 7.2 4.8 4.4 5.1 5.8 6.6 7.2 7.6 7.7 7.7 7.6 7.8 7.9 8.4 9.4 9.3 9.3 9.3 9.0 9.1
5.8 6.3 7.1 7.2 7.6 8.8 9.5 9.5 9.2 9.7 9.3 9.5 9.5 9.5 9.6 9.7 9.6 8.8 8.4 7.6 7.4 7.1 6.4 6.6 6.7 6.3 3.6 4.5 5.6 6.5 6.9 7.1 7.4 7.3 7.4 7.6 7.9 8.4 9.2 9.3 9.2 9.0 8.9
5.4 5.9 6.5 7.2 7.5 8.1 8.4 9.1 9.2 9.0 9.3 9.2 9.0 9.1 9.3 9.5 9.4 8.8 7.8 7.8 8.1 7.3 7.0 7.2 7.1 6.9 7.1 5.2 4.8 5.0 5.9 6.5 6.7 6.8 6.9 7.3 7.6 8.1 9.0 9.3 9.4 9.3 9.1
4.6 5.7 6.0 6.8 7.6 8.1 8.5 9.2 9.2 9.1 9.1 9.4 8.7 8.3 7.6 8.7 9.2 9.0 7.9 7.3 7.5 8.2 8.0 7.5 7.3 7.4 7.3 7.0 6.5 5.3 4.7 4.9 5.6 6.3 6.7 7.0 7.3 7.5 8.1 9.0 9.2 9.2 9.3
3.8 4.7 5.2 6.1 7.1 7.6 7.7 8.4 9.1 8.7 8.8 9.1 8.9 8.6 7.7 7.6 8.3 9.0 7.9 8.4 8.5 8.7 8.6 8.6 8.0 7.4 7.2 7.1 6.5 5.9 3.9 3.8 4.8 5.9 6.7 7.2 7.8 8.9 9.3 9.3 9.3 9.2 9.4
3.2 3.9 4.5 5.4 6.4 7.1 7.3 8.0 8.4 8.5 8.0 7.9 7.9 7.9 8.0 8.2 7.8 7.7 8.7 9.1 9.4 8.8 9.0 8.9 8.2 7.7 7.3 7.0 6.3 5.1 3.8 3.5 4.3 5.8 6.9 7.7 8.1 9.1 9.4 9.4 9.4 8.7 8.7
3.1 3.7 4.4 4.8 5.6 6.8 7.2 7.7 8.6 8.1 8.2 7.0 6.3 7.4 6.3 6.1 6.3 6.7 7.9 8.5 9.2 9.2 8.4 8.5 8.7 8.4 7.8 7.3 6.5 5.6 4.2 3.8 5.1 6.3 7.3 7.8 8.5 9.3 9.0 8.3 8.7 8.7 8.5
3.5 3.3 4.2 4.9 5.4 5.7 6.3 7.0 7.6 7.5 6.8 6.4 5.7 6.2 7.1 8.0 6.7 5.2 6.2 7.7 8.5 8.9 9.5 8.7 8.3 8.1 7.8 7.2 6.4 4.4 3.0 3.6 4.9 6.0 7.0 7.8 8.1 6.1 6.4 7.1 7.4 7.5 7.6
3.6 3.3 3.6 4.5 5.2 5.2 5.6 6.4 7.4 6.6 5.5 4.9 5.3 5.7 6.2 6.9 8.1 7.5 8.0 8.2 8.3 8.9 9.0 9.6 8.4 7.8 7.4 6.8 6.1 2.9 2.9 3.1 4.1 5.5 6.7 6.8 5.8 5.7 5.9 6.5 7.0 7.2 7.2
7.2 6.1 5.2 5.3 5.8 5.8 5.6 6.1 6.6 6.5 6.1 5.0 4.9 5.3 5.8 6.3 7.6 8.2 7.9 7.9 7.7 8.1 8.5 7.6 8.4 7.1 6.7 5.9 4.8 2.0 4.5 2.7 4.3 4.4 4.5 5.1 5.0 4.8 5.4 5.9 6.2 6.3 6.7
5.0 5.5 5.2 4.6 5.0 6.2 6.3 6.1 6.3 5.9 6.3 6.3 5.3 4.8 5.4 6.2 7.0 7.3 7.8 7.3 7.5 7.7 8.1 8.4 8.6 8.4 6.0 3.7 3.2 4.0 5.2 1.5 3.2 3.5 4.0 3.9 4.1 4.8 5.3 5.6 5.8 6.2 6.8
4.6 4.9 4.8 5.4 5.4 5.5 6.2 7.0 6.4 6.1 6.4 6.0 5.6 5.6 5.4 5.5 6.0 6.7 6.0 6.1 6.2 6.5 7.0 8.6 8.7 8.4 4.3 2.8 0.8 3.3 3.4 1.6 1.8 2.6 3.4 4.2 4.5 4.8 4.7 5.5 5.9 6.7 8.5
4.9 4.5 4.8 5.0 5.3 5.4 5.5 6.1 6.3 6.0 6.0 6.1 5.6 5.7 6.0 5.9 5.6 5.7 4.6 4.2 4.5 4.4 5.2 6.1 7.4 7.6 4.2 2.9 1.0 2.5 1.7 4.3 4.5 1.7 3.9 4.5 4.5 4.1 4.6 5.4 6.0 8.5 9.4
5.1 5.1 5.0 5.0 4.8 4.9 5.2 6.3 6.1 5.3 5.9 5.6 5.1 5.9 6.0 6.0 5.8 5.8 4.8 4.1 3.8 4.0 4.2 4.7 5.7 5.1 3.6 1.1 2.5 2.6 3.7 3.9 4.9 3.6 3.4 4.0 3.7 3.6 4.9 5.7 6.9 7.8 8.3
5.7 5.6 5.4 5.0 4.8 4.9 6.1 5.6 5.7 6.3 6.0 5.7 5.6 5.1 5.7 6.2 6.1 5.6 5.2 4.5 4.3 3.8 4.4 5.1 6.3 2.7 0.7 1.5 2.1 3.4 4.3 4.3 4.7 2.2 3.0 3.0 2.8 4.2 5.4 6.2 6.7 7.1 7.1
6.8 6.7 6.6 6.4 5.7 5.5 6.0 5.8 7.1 7.1 5.0 5.5 5.3 5.7 5.5 5.8 5.8 5.9 5.1 4.6 4.2 4.1 4.4 4.9 4.0 1.5 1.3 0.4 2.5 5.1 4.0 4.4 4.9 3.9 3.0 3.1 3.9 5.1 5.3 5.8 6.1 6.3 6.6
7.1 7.1 6.7 6.4 6.2 6.0 5.2 5.2 6.9 6.4 6.4 5.7 6.6 4.8 5.0 4.6 3.7 5.5 4.7 4.0 4.2 5.0 4.7 3.5 1.3 1.1 1.0 0.8 2.0 3.8 4.1 5.8 4.3 3.0 3.3 5.4 6.5 6.8 7.0 6.7 6.4 6.3 6.8
7.3 7.2 7.1 7.2 6.8 6.4 3.4 1.0 2.6 7.1 7.7 7.2 7.4 6.1 5.3 1.6 2.2 2.8 2.7 2.7 3.3 3.9 3.4 2.6 2.0 1.8 1.6 2.6 3.3 3.3 3.3 3.5 6.0 2.7 3.3 4.8 7.1 6.4 7.0 7.6 6.8 5.6 6.0
9.0 8.9 8.7 8.9 8.0 7.1 3.5 2.0 1.8 3.8 7.1 3.6 5.5 7.0 7.3 5.6 2.3 3.1 2.5 1.8 1.4 2.1 2.2 2.8 1.0 1.5 2.9 2.1 2.1 1.8 2.2 3.6 4.9 5.5 3.9 4.9 7.4 6.7 8.3 8.1 6.0 5.6 5.8
8.9 9.0 8.5 8.5 8.4 7.2 2.9 2.2 2.2 5.3 5.2 4.2 6.7 6.3 6.8 6.8 3.9 2.7 1.7 1.7 1.2 0.2 -0.1 0.2 1.6 0.9 2.2 2.3 2.2 2.3 2.7 3.7 3.5 4.2 4.2 5.0 9.0 9.0 9.3 8.5 6.5 5.7 6.4
9.0 9.0 8.8 7.6 7.5 8.3 4.3 2.2 2.7 6.2 5.0 4.0 6.7 3.1 5.3 6.3 4.4 0.9 1.9 -0.6 -1.7 -1.3 -0.9 -0.6 -0.3 0.0 0.7 0.7 0.4 0.4 0.6 2.4 4.9 7.1 5.3 5.8 7.8 8.9 7.0 7.0 8.2 6.1 6.2
9.0 9.0 8.7 8.7 8.0 7.2 6.0 3.4 3.1 6.7 6.5 5.0 4.7 5.4 2.7 5.3 4.2 1.8 2.4 -1.0 -0.3 -1.6 -2.0 -2.7 -2.0 -0.7 -0.4 -0.6 -0.0 1.6 1.6 2.5 3.7 7.3 7.2 6.5 8.8 7.6 6.1 8.4 7.6 8.5 8.8
Wind_Speed
8 10 9 9 9 8 8 8 8 7 6 8 7 8 8 9 9 8 8 8 10 12 13 14 14 14 13 14 14 14 14 15 15 15 15 16 17 17 18 18 18 18 18
10 8 8 8 9 10 10 10 7 6 6 7 7 9 9 10 10 11 11 11 11 14 16 17 17 17 17 17 17 17 17 18 18 17 18 19 19 20 21 21 21 21 21
14 12 8 8 10 13 13 11 10 10 7 7 9 8 9 11 11 12 13 13 13 15 18 20 20 20 20 21 21 20 20 21 21 21 21 22 22 23 24 23 24 24 24
18 14 9 10 13 12 11 8 8 8 8 8 8 8 8 10 12 14 15 14 15 15 15 21 23 23 22 23 24 24 23 23 23 23 24 25 26 26 27 26 26 27 27
22 17 11 11 15 9 9 8 9 9 9 9 9 9 9 9 11 12 13 16 18 17 16 17 20 22 24 25 25 25 25 26 24 25 26 27 28 28 29 29 30 30 30
22 18 12 12 14 10 10 10 11 10 10 9 9 9 10 10 10 11 13 16 18 17 18 19 18 18 25 24 25 25 26 27 27 27 27 28 28 29 31 32 33 33 33
21 17 13 13 13 13 13 13 12 14 11 10 8 10 11 13 14 12 11 12 13 14 17 17 16 16 14 17 20 23 24 26 26 27 27 27 28 29 30 32 34 34 34
21 15 16 14 15 12 14 14 14 11 11 10 8 6 5 9 9 10 9 9 12 8 9 12 12 13 12 12 14 15 18 20 21 21 21 21 22 23 25 28 31 34 34
19 17 17 15 15 13 12 15 15 16 12 11 14 9 5 7 2 6 8 7 8 7 8 8 10 12 13 13 13 14 16 17 15 16 18 19 20 22 24 26 28 29 29
17 17 18 17 16 13 15 14 13 14 14 11 6 10 12 9 6 7 6 7 8 9 10 10 9 10 13 13 13 15 15 13 13 15 17 18 20 22 24 25 24 17 14
16 17 17 17 16 13 16 17 15 16 12 11 11 7 10 9 9 9 10 9 9 10 10 10 9 8 12 12 11 12 11 13 12 13 16 18 20 19 16 15 15 16 17
10 16 17 16 16 16 16 15 16 18 14 13 11 11 10 7 9 8 9 13 12 11 9 9 10 9 9 11 11 10 9 10 10 11 13 15 12 7 9 11 13 15 17
10 13 16 16 14 16 17 16 16 15 14 12 14 11 11 12 11 10 11 11 11 10 8 9 8 9 7 9 9 9 7 5 7 8 8 5 4 8 10 13 16 19 20
10 11 13 15 17 16 16 16 12 12 14 13 16 14 12 12 12 12 11 10 9 9 9 11 6 8 7 7 5 7 6 6 5 3 2 1 4 8 12 16 17 18 20
11 13 14 15 17 17 18 17 13 16 16 15 15 16 13 12 12 12 11 11 11 11 12 10 9 8 5 6 7 7 6 5 3 4 1 2 6 10 13 14 16 18 19
14 14 14 15 16 17 18 18 15 16 15 12 12 15 14 12 12 11 11 11 11 12 11 9 9 7 5 4 5 6 4 6 3 3 3 5 7 9 11 14 15 16 16
13 14 15 16 17 18 18 17 19 18 18 17 15 15 17 16 11 11 10 9 10 9 11 9 9 5 6 6 5 4 5 5 5 2 3 4 8 8 11 12 11 13 15
13 14 15 16 17 18 18 19 20 18 20 18 18 17 18 12 17 15 10 13 12 11 9 13 9 7 8 4 5 6 6 6 4 2 3 5 5 9 9 8 12 14 14
13 14 14 16 18 18 18 20 20 21 20 20 18 18 19 18 16 13 13 12 11 9 11 9 6 4 2 4 6 6 7 6 4 2 4 4 6 9 11 12 13 13 14
14 15 15 16 16 18 17 18 19 19 19 19 18 19 18 18 20 17 14 15 12 10 9 9 5 4 2 3 5 7 6 6 5 3 3 7 6 12 14 12 13 12 15
13 14 16 16 17 15 13 16 17 18 19 20 18 17 18 20 22 19 11 14 13 12 9 8 4 3 4 3 8 5 5 4 5 3 3 5 5 6 6 10 11 11 14
17 16 15 16 17 11 16 15 16 17 17 18 18 17 18 17 19 22 21 15 16 13 13 9 7 6 8 5 6 6 5 3 3 3 3 6 5 6 6 7 10 15 15
18 19 18 17 18 17 16 15 17 15 19 18 17 16 14 12 16 17 20 18 15 15 11 11 9 8 8 9 9 8 6 5 4 2 3 6 3 6 6 7 13 14 15
17 17 18 19 18 16 16 15 17 18 17 19 19 15 15 15 14 17 13 13 13 10 6 6 7 7 5 10 9 7 7 5 2 3 3 4 3 7 7 7 10 12 12
17 16 16 18 18 19 19 15 14 16 15 18 17 16 15 17 19 21 13 12 10 6 6 12 13 16 17 16 13 9 6 5 3 4 4 5 5 8 7 6 5 8 14
17 15 17 17 18 18 20 16 14 12 17 12 12 14 16 19 13 23 14 13 12 11 12 13 12 13 13 12 13 5 6 6 3 3 4 3 4 5 4 3 4 8 7
Wind_Direction
219 216 216 211 215 218 225 224 233 238 235 236 230 240 246 248 245 251 256 231 246 256 258 262 267 267 262 265 269 270 270 268 268 270 269 268 268 268 267 266 268 271 274
222 219 218 221 222 222 225 231 236 239 244 242 241 237 245 245 248 248 254 256 234 245 251 256 261 266 268 265 264 266 267 268 268 268 268 269 269 269 269 270 271 272 275
224 223 227 224 225 227 227 230 237 242 248 247 252 254 253 252 247 248 251 254 253 233 244 252 255 259 262 266 265 264 266 268 267 267 268 268 267 267 268 270 271 272 274
223 224 227 231 228 227 228 233 237 239 242 246 246 247 248 256 259 256 252 251 251 256 242 243 250 251 256 261 264 266 266 268 269 271 270 269 269 268 267 268 271 271 271
219 222 224 228 231 230 229 233 237 242 247 245 253 254 252 253 255 255 255 253 250 250 254 253 237 248 252 256 261 266 270 271 270 271 272 272 272 272 272 270 269 269 270
222 221 228 226 224 229 230 228 235 233 240 250 256 259 260 259 261 259 257 253 252 251 250 254 257 250 240 252 260 265 267 269 272 272 272 272 273 273 271 271 272 271 272
222 220 225 227 223 225 227 228 230 235 235 238 257 259 260 256 259 255 253 252 256 251 253 255 255 258 259 240 252 258 264 268 272 274 276 279 278 277 277 276 274 273 274
224 222 223 227 224 228 234 234 234 239 242 236 232 247 274 266 251 253 251 247 249 245 244 245 249 248 253 257 257 252 257 264 269 277 279 279 281 283 284 285 282 281 284
227 226 226 226 226 224 228 228 228 224 234 230 225 230 234 235 284 211 228 235 232 237 240 250 260 250 248 251 256 260 250 260 270 274 276 280 284 288 289 290 290 289 285
226 225 227 227 227 223 226 227 224 226 225 233 216 227 243 270 259 275 234 241 254 245 245 266 256 256 252 255 253 257 265 261 262 269 280 287 292 296 298 297 298 315 312
224 225 224 225 226 227 229 230 226 225 226 221 220 210 225 231 237 248 261 252 242 256 259 260 265 264 262 256 254 253 242 252 262 277 287 293 296 301 318 325 326 322 322
222 223 221 222 225 226 228 227 228 226 221 218 221 219 218 219 218 219 240 253 256 255 250 255 260 260 257 252 243 241 237 248 266 278 284 294 313 345 329 320 318 314 311
226 225 219 220 223 225 227 227 226 223 218 216 217 221 225 227 229 213 230 246 253 254 257 254 242 250 249 243 242 215 217 246 255 266 289 318 333 328 325 319 317 316 314
256 247 234 234 232 230 230 229 228 226 222 219 222 221 224 226 227 227 222 227 248 247 247 251 226 224 239 225 215 179 207 226 195 155 146 310 314 323 320 316 317 317 314
260 259 243 235 235 234 233 228 225 227 226 226 224 222 223 227 227 228 226 222 225 246 248 247 251 215 205 184 179 205 224 158 162 116 78 338 329 319 316 315 314 312 310
266 262 256 252 247 241 239 238 235 233 230 226 225 227 226 225 227 226 222 223 221 231 250 243 245 229 178 171 159 199 190 164 98 54 359 334 324 315 312 306 308 305 304
274 267 263 260 254 249 241 235 234 235 232 231 223 223 228 224 224 221 218 216 220 217 236 247 248 224 187 195 177 194 190 232 219 75 327 302 303 301 306 303 305 305 304
289 281 272 266 260 254 249 243 241 234 234 229 227 224 228 224 226 224 219 219 216 214 220 238 227 196 211 200 198 201 217 223 240 183 287 296 283 297 290 287 297 295 300
304 292 279 271 267 263 256 249 244 241 235 233 230 225 228 221 224 223 219 221 223 212 213 223 216 175 167 173 206 221 218 228 240 203 257 244 274 279 277 281 291 292 298
315 307 296 284 275 270 264 259 252 245 242 238 231 230 230 224 224 217 216 219 219 208 205 224 207 170 172 158 216 228 216 225 256 251 248 268 274 276 274 271 283 290 294
311 310 305 296 287 273 263 258 253 250 247 246 242 231 230 227 228 216 207 217 212 212 198 195 190 176 174 169 204 201 223 233 246 249 262 269 269 267 262 270 272 277 288
309 306 301 299 296 286 269 245 243 257 253 252 252 238 234 225 225 212 208 214 216 203 195 194 189 204 195 193 180 185 199 218 254 176 272 274 245 260 272 274 292 292 284
311 308 306 305 301 297 285 258 238 245 252 247 244 248 240 232 223 224 218 215 219 225 227 189 182 193 175 179 164 166 183 209 229 174 268 278 234 260 278 281 282 276 268
312 310 309 309 306 301 289 272 256 258 254 254 252 243 240 238 223 217 206 202 201 182 191 197 175 156 141 154 156 157 167 177 190 217 225 266 263 278 293 289 269 259 266
312 310 308 307 306 302 305 292 278 281 263 259 253 235 232 235 223 206 199 171 152 134 105 115 114 125 133 137 138 132 149 165 206 213 187 271 283 306 301 277 248 245 283
313 314 309 308 307 305 308 304 301 292 280 269 258 249 230 235 213 194 193 170 172 168 146 125 122 118 121 131 140 149 150 159 179 223 169 251 297 343 318 271 273 296 294